Terminal Aerodrome Forecast
Issued by NWS

Home | Current Version | Previous Version | Text Only | Print | Product List | Glossary On
Versions: 1 2 3 4 5 6 7 8 9 10 11 12 13 14 15 16
000
FTUS46 KOTX 260330 AAA
TAFPUW
TAF AMD
KPUW 260330Z 2604/2624 23018G24KT P6SM -SHRA SCT030 BKN050 OVC080
     FM260700 23022G28KT P6SM VCSH SCT040 BKN060
     FM261000 23028G38KT P6SM BKN080 BKN120
     FM261800 22020G30KT P6SM SCT080 BKN120=

USA.gov is the U.S. government's official web portal to all federal, state and local government web resources and services.